• In Uzbekistan
  • List of Countries
  • For 7 days
  • Water Temperature
  • Weather Map
  • Weather Widgets
  • user-avatar
    Login

    Hourly Weather Abikanda

    Today, 5 June, Friday

    Time Temperature Precipitation Wind Pressure Humidity
    00:00 +26°C° 0 mm 3 mps 663 mmHg 23%
    01:00 +26°C° 0 mm 3 mps 663 mmHg 22%
    02:00 +25°C° 0 mm 3 mps 663 mmHg 23%
    03:00 +25°C° 0 mm 3 mps 663 mmHg 23%
    04:00 +24°C° 0 mm 2 mps 662 mmHg 24%
    05:00 +27°C° 0 mm 2 mps 663 mmHg 23%
    06:00 +29°C° 0 mm 1 mps 664 mmHg 22%
    07:00 +31°C° 0 mm 1 mps 664 mmHg 20%
    08:00 +32°C° 0 mm 1 mps 665 mmHg 19%
    09:00 +34°C° 0 mm 2 mps 665 mmHg 17%
    10:00 +35°C° 0 mm 3 mps 665 mmHg 15%
    11:00 +35°C° 0 mm 4 mps 665 mmHg 16%
    12:00 +36°C° 0 mm 5 mps 665 mmHg 17%
    13:00 +36°C° 0 mm 5 mps 665 mmHg 17%
    14:00 +35°C° 0 mm 6 mps 664 mmHg 18%
    15:00 +35°C° 0 mm 6 mps 664 mmHg 18%
    16:00 +35°C° 0 mm 6 mps 664 mmHg 18%
    17:00 +32°C° 0 mm 5 mps 663 mmHg 21%
    18:00 +29°C° 0 mm 4 mps 663 mmHg 24%
    19:00 +27°C° 0 mm 2 mps 663 mmHg 27%
    20:00 +26°C° 0 mm 3 mps 663 mmHg 31%
    21:00 +25°C° 0 mm 3 mps 663 mmHg 35%
    22:00 +24°C° 0 mm 3 mps 663 mmHg 38%
    23:00 +24°C° 0 mm 3 mps 663 mmHg 39%

    Tomorrow, 6 June, Saturday

    Time Temperature Precipitation Wind Pressure Humidity
    00:00 +22°C° 0 mm 3 mps 663 mmHg 39%
    01:00 +22°C° 0 mm 3 mps 662 mmHg 40%
    02:00 +21°C° 0 mm 3 mps 662 mmHg 41%
    03:00 +21°C° 0 mm 2 mps 662 mmHg 42%
    04:00 +21°C° 0 mm 2 mps 662 mmHg 43%
    05:00 +23°C° 0 mm 2 mps 663 mmHg 41%
    06:00 +25°C° 0 mm 2 mps 664 mmHg 39%
    07:00 +26°C° 0 mm 2 mps 664 mmHg 36%
    08:00 +27°C° 0 mm 3 mps 664 mmHg 34%
    09:00 +28°C° 0 mm 3 mps 665 mmHg 32%
    10:00 +29°C° 0 mm 4 mps 665 mmHg 30%
    11:00 +30°C° 0 mm 4 mps 665 mmHg 29%
    12:00 +30°C° 0 mm 4 mps 665 mmHg 27%
    13:00 +32°C° 0 mm 4 mps 665 mmHg 26%
    14:00 +32°C° 0 mm 4 mps 664 mmHg 25%
    15:00 +30°C° 0 mm 4 mps 664 mmHg 24%
    16:00 +30°C° 0 mm 4 mps 664 mmHg 23%
    17:00 +28°C° 0 mm 4 mps 664 mmHg 25%
    18:00 +26°C° 0 mm 3 mps 663 mmHg 28%
    19:00 +24°C° 0 mm 3 mps 663 mmHg 30%
    20:00 +23°C° 0 mm 2 mps 663 mmHg 30%
    21:00 +21°C° 0 mm 2 mps 663 mmHg 31%
    22:00 +21°C° 0 mm 2 mps 663 mmHg 31%
    23:00 +20°C° 0 mm 2 mps 663 mmHg 32%

    Day after tomorrow, 7 June, Sunday

    Time Temperature Precipitation Wind Pressure Humidity
    00:00 +20°C° 0 mm 2 mps 662 mmHg 32%
    01:00 +19°C° 0 mm 2 mps 662 mmHg 33%
    02:00 +19°C° 0 mm 2 mps 662 mmHg 34%
    03:00 +18°C° 0 mm 2 mps 662 mmHg 36%
    04:00 +18°C° 0 mm 2 mps 662 mmHg 37%
    05:00 +20°C° 0 mm 2 mps 663 mmHg 34%
    06:00 +23°C° 0 mm 2 mps 663 mmHg 32%
    07:00 +25°C° 0 mm 2 mps 664 mmHg 29%
    08:00 +26°C° 0 mm 2 mps 665 mmHg 26%
    09:00 +28°C° 0 mm 2 mps 665 mmHg 24%
    10:00 +29°C° 0 mm 3 mps 666 mmHg 21%
    11:00 +30°C° 0 mm 3 mps 665 mmHg 19%
    12:00 +30°C° 0 mm 3 mps 665 mmHg 17%
    13:00 +31°C° 0 mm 3 mps 665 mmHg 15%
    14:00 +30°C° 0 mm 3 mps 665 mmHg 15%
    15:00 +30°C° 0 mm 4 mps 665 mmHg 15%
    16:00 +30°C° 0 mm 4 mps 665 mmHg 15%
    17:00 +28°C° 0 mm 3 mps 664 mmHg 18%
    18:00 +26°C° 0 mm 3 mps 664 mmHg 20%
    19:00 +24°C° 0 mm 2 mps 664 mmHg 23%
    20:00 +23°C° 0 mm 2 mps 663 mmHg 24%
    21:00 +21°C° 0 mm 2 mps 663 mmHg 25%
    22:00 +20°C° 0 mm 2 mps 663 mmHg 26%
    23:00 +21°C° 0 mm 1 mps 663 mmHg 28%

    8 June, Monday

    Time Temperature Precipitation Wind Pressure Humidity
    00:00 +20°C° 0 mm 1 mps 662 mmHg 29%
    01:00 +20°C° 0 mm 1 mps 662 mmHg 31%
    02:00 +20°C° 0 mm 1 mps 662 mmHg 30%
    03:00 +20°C° 0 mm 1 mps 662 mmHg 30%
    04:00 +19°C° 0 mm 1 mps 662 mmHg 29%
    05:00 +21°C° 0 mm 1 mps 662 mmHg 28%
    06:00 +22°C° 0 mm 1 mps 663 mmHg 26%
    07:00 +24°C° 0 mm 1 mps 664 mmHg 24%
    08:00 +25°C° 0 mm 2 mps 664 mmHg 24%
    09:00 +26°C° 0 mm 2 mps 664 mmHg 23%
    10:00 +27°C° 0 mm 3 mps 665 mmHg 22%
    11:00 +27°C° 0 mm 3 mps 665 mmHg 23%
    12:00 +28°C° 0 mm 4 mps 665 mmHg 23%
    13:00 +28°C° 0 mm 4 mps 665 mmHg 23%
    14:00 +28°C° 0 mm 4 mps 665 mmHg 23%
    15:00 +28°C° 0 mm 4 mps 665 mmHg 24%
    16:00 +28°C° 0 mm 4 mps 664 mmHg 24%
    17:00 +26°C° 0 mm 3 mps 664 mmHg 28%
    18:00 +24°C° 0 mm 3 mps 664 mmHg 31%
    19:00 +21°C° 0 mm 2 mps 663 mmHg 35%
    20:00 +21°C° 0 mm 2 mps 663 mmHg 36%
    21:00 +20°C° 0 mm 2 mps 663 mmHg 37%
    22:00 +19°C° 0 mm 2 mps 663 mmHg 38%
    23:00 +20°C° 0 mm 1 mps 663 mmHg 39%

    9 June, Tuesday

    Time Temperature Precipitation Wind Pressure Humidity
    00:00 +20°C° 0 mm 1 mps 663 mmHg 41%
    01:00 +19°C° 0 mm 1 mps 663 mmHg 42%
    02:00 +19°C° 0 mm 1 mps 663 mmHg 42%
    03:00 +18°C° 0 mm 1 mps 662 mmHg 43%
    04:00 +18°C° 0 mm 1 mps 662 mmHg 44%
    05:00 +20°C° 0 mm 1 mps 663 mmHg 39%
    06:00 +22°C° 0 mm 1 mps 664 mmHg 35%
    07:00 +24°C° 0 mm 1 mps 665 mmHg 30%
    08:00 +25°C° 0 mm 2 mps 665 mmHg 28%
    09:00 +26°C° 0 mm 3 mps 665 mmHg 26%
    10:00 +27°C° 0 mm 4 mps 666 mmHg 24%
    11:00 +27°C° 0 mm 4 mps 666 mmHg 23%
    12:00 +28°C° 0 mm 5 mps 666 mmHg 22%
    13:00 +29°C° 0 mm 6 mps 666 mmHg 21%
    14:00 +28°C° 0 mm 5 mps 666 mmHg 20%
    15:00 +28°C° 0 mm 5 mps 665 mmHg 20%
    16:00 +28°C° 0 mm 4 mps 665 mmHg 19%
    17:00 +25°C° 0 mm 3 mps 665 mmHg 24%
    18:00 +23°C° 0 mm 2 mps 664 mmHg 28%
    19:00 +21°C° 0 mm 1 mps 664 mmHg 32%
    20:00 +21°C° 0 mm 1 mps 664 mmHg 32%
    21:00 +20°C° 0 mm 1 mps 664 mmHg 33%
    22:00 +20°C° 0 mm 1 mps 664 mmHg 34%
    23:00 +19°C° 0 mm 1 mps 664 mmHg 34%

    10 June, Wednesday

    Time Temperature Precipitation Wind Pressure Humidity
    00:00 +19°C° 0 mm 1 mps 664 mmHg 35%
    01:00 +18°C° 0 mm 1 mps 663 mmHg 36%
    02:00 +18°C° 0 mm 1 mps 663 mmHg 37%
    03:00 +16°C° 0 mm 1 mps 663 mmHg 38%
    04:00 +16°C° 0 mm 1 mps 663 mmHg 39%
    05:00 +19°C° 0 mm 1 mps 664 mmHg 36%
    06:00 +21°C° 0 mm 1 mps 665 mmHg 32%
    07:00 +22°C° 0 mm 1 mps 666 mmHg 29%
    08:00 +23°C° 0 mm 2 mps 666 mmHg 28%
    09:00 +24°C° 0 mm 2 mps 666 mmHg 27%
    10:00 +25°C° 0 mm 2 mps 666 mmHg 26%
    11:00 +26°C° 0 mm 3 mps 666 mmHg 25%
    12:00 +27°C° 0 mm 3 mps 667 mmHg 24%
    13:00 +27°C° 0 mm 3 mps 667 mmHg 24%
    14:00 +27°C° 0 mm 3 mps 666 mmHg 23%
    15:00 +27°C° 0 mm 3 mps 666 mmHg 23%
    16:00 +27°C° 0 mm 3 mps 666 mmHg 23%
    17:00 +25°C° 0 mm 2 mps 666 mmHg 26%
    18:00 +23°C° 0 mm 2 mps 665 mmHg 30%
    19:00 +21°C° 0 mm 1 mps 665 mmHg 33%
    20:00 +21°C° 0 mm 1 mps 665 mmHg 33%
    21:00 +20°C° 0 mm 1 mps 665 mmHg 34%
    22:00 +20°C° 0 mm 1 mps 665 mmHg 34%
    23:00 +19°C° 0 mm 1 mps 665 mmHg 35%
    Show more